Weather History for Colby, KS

Change the Weather History Date:

Sunday, January 12, 2014

  Actual Average (KGLD) Record (KGLD)
Temperature  
Mean Temperature 42 °F 30 °F  
Max Temperature 51 °F 43 °F 75 °F (1953)
Min Temperature 33 °F 17 °F -20 °F (1912)
Degree Days  
Heating Degree Days 23 35  
Month to date heating degree days 422  
Since 1 July heating degree days 2829  
Cooling Degree Days 0 0  
Month to date cooling degree days 0  
Year to date cooling degree days 0  
Moisture  
Dew Point 26 °F    
Average Humidity 54    
Maximum Humidity 75    
Minimum Humidity 34    
Precipitation  
Precipitation 0.00 in 0.01 in 0.32 in (1979)
Month to date precipitation 0.14  
Year to date precipitation 0.14  
Snow  
Snow 0.00 in 0.20 in - ()
Month to date snowfall 2.2  
Since 1 July snowfall 14.9  
Snow Depth -    
Sea Level Pressure  
Sea Level Pressure 29.64 in    
Wind  
Wind Speed 13 mph (WNW)    
Max Wind Speed 25 mph    
Max Gust Speed 33 mph    
Visibility 10 miles    
Events      
T = Trace of Precipitation, MM = Missing Value Source: NWS Daily Summary

Daily Weather History Graph

Daily Weather History Graph

Search for Another Location

Airport:

Trip Planner

Search our weather history database for the weather conditions in past years. The results will help you decide how hot, cold, wet, or windy it might be!

Date:

Astronomy

Jan. 12, 2014 Rise Set
Actual Time 8:03 AM CST 5:41 PM CST
Civil Twilight 7:33 AM CST 6:11 PM CST
Nautical Twilight 7:00 AM CST 6:44 PM CST
Astronomical Twilight 6:28 AM CST 7:17 PM CST
Moon 3:11 PM CST (1/12) 5:04 AM CST (1/12)
Length of Visible Light 10h 37m
Length of Day
9h 38m
Waxing Gibbous, 90% of the Moon is Illuminated
Jan 12
Waxing Gibbous
Jan 15
Full
Jan 23
Last Quarter
Jan 30
New
Feb 6
First Quarter

Hourly Weather History & Observations

Time (CST) Temp. Windchill Dew Point Humidity Pressure Visibility Wind Dir Wind Speed Gust Speed Precip Events Conditions
12:15 AM 39.2 °F 31.6 °F 24.8 °F 56% 29.65 in 10.0 mi SSW 12.7 mph - N/A   Clear
12:35 AM 39.2 °F 32.5 °F 24.8 °F 56% 29.63 in 10.0 mi SSW 10.4 mph - N/A   Clear
12:55 AM 39.2 °F 33.0 °F 24.8 °F 56% 29.62 in 10.0 mi SSW 9.2 mph - N/A   Clear
1:15 AM 37.4 °F 30.8 °F 24.8 °F 60% 29.60 in 10.0 mi SSW 9.2 mph - N/A   Clear
1:35 AM 37.4 °F 30.8 °F 26.6 °F 65% 29.59 in 10.0 mi SW 9.2 mph - N/A   Clear
1:55 AM 35.6 °F 28.6 °F 26.6 °F 70% 29.59 in 10.0 mi SW 9.2 mph - N/A   Clear
2:15 AM 37.4 °F 32.8 °F 26.6 °F 65% 29.58 in 10.0 mi SW 5.8 mph - N/A   Clear
2:35 AM 37.4 °F 30.8 °F 26.6 °F 65% 29.58 in 10.0 mi WSW 9.2 mph - N/A   Clear
2:55 AM 37.4 °F 30.3 °F 26.6 °F 65% 29.58 in 10.0 mi WSW 10.4 mph - N/A   Clear
3:15 AM 37.4 °F 31.4 °F 26.6 °F 65% 29.57 in 10.0 mi WSW 8.1 mph - N/A   Clear
3:35 AM 35.6 °F 30.7 °F 28.4 °F 75% 29.57 in 10.0 mi West 5.8 mph - N/A   Clear
3:55 AM 35.6 °F 29.2 °F 28.4 °F 75% 29.56 in 10.0 mi WSW 8.1 mph - N/A   Clear
4:15 AM 35.6 °F 28.0 °F 28.4 °F 75% 29.55 in 10.0 mi WSW 10.4 mph - N/A   Clear
4:35 AM 37.4 °F 30.8 °F 28.4 °F 70% 29.54 in 10.0 mi West 9.2 mph - N/A   Clear
4:55 AM 37.4 °F 30.8 °F 28.4 °F 70% 29.54 in 10.0 mi WSW 9.2 mph - N/A   Clear
5:15 AM 39.2 °F 33.0 °F 30.2 °F 70% 29.55 in 10.0 mi West 9.2 mph - N/A   Clear
5:35 AM 41.0 °F 35.2 °F 30.2 °F 65% 29.55 in 10.0 mi WSW 9.2 mph - N/A   Clear
5:55 AM 41.0 °F 34.3 °F 30.2 °F 65% 29.54 in 10.0 mi WSW 11.5 mph - N/A   Clear
6:15 AM 41.0 °F 34.7 °F 30.2 °F 65% 29.53 in 10.0 mi West 10.4 mph - N/A   Clear
6:35 AM 41.0 °F 34.3 °F 30.2 °F 65% 29.53 in 10.0 mi West 11.5 mph - N/A   Clear
6:55 AM 42.8 °F 37.5 °F 30.2 °F 61% 29.53 in 10.0 mi West 9.2 mph - N/A   Clear
7:15 AM 41.0 °F 34.3 °F 30.2 °F 65% 29.53 in 10.0 mi West 11.5 mph - N/A   Clear
7:35 AM 41.0 °F 34.7 °F 30.2 °F 65% 29.52 in 10.0 mi West 10.4 mph - N/A   Clear
7:55 AM 41.0 °F 34.7 °F 30.2 °F 65% 29.53 in 10.0 mi West 10.4 mph - N/A   Clear
8:15 AM 41.0 °F 34.3 °F 30.2 °F 65% 29.54 in 10.0 mi West 11.5 mph - N/A   Clear
8:35 AM 41.0 °F 34.7 °F 30.2 °F 65% 29.54 in 10.0 mi West 10.4 mph - N/A   Clear
8:55 AM 41.0 °F 34.7 °F 30.2 °F 65% 29.55 in 10.0 mi West 10.4 mph - N/A   Clear
9:15 AM 42.8 °F 37.5 °F 30.2 °F 61% 29.56 in 10.0 mi West 9.2 mph - N/A   Clear
9:35 AM 42.8 °F 37.5 °F 30.2 °F 61% 29.57 in 10.0 mi WNW 9.2 mph - N/A   Clear
9:55 AM 42.8 °F 37.5 °F 30.2 °F 61% 29.56 in 10.0 mi WNW 9.2 mph - N/A   Clear
10:15 AM 44.6 °F 39.2 °F 30.2 °F 57% 29.55 in 10.0 mi WNW 10.4 mph - N/A   Clear
10:35 AM 44.6 °F 38.1 °F 30.2 °F 57% 29.57 in 10.0 mi WNW 13.8 mph - N/A   Clear
10:55 AM 48.2 °F - 30.2 °F 50% 29.57 in 10.0 mi WNW 12.7 mph - N/A   Clear
11:15 AM 50.0 °F - 30.2 °F 47% 29.57 in 10.0 mi NW 17.3 mph - N/A   Clear
11:35 AM 50.0 °F - 30.2 °F 47% 29.57 in 10.0 mi NW 13.8 mph - N/A   Clear
11:55 AM 51.8 °F - 30.2 °F 44% 29.58 in 10.0 mi NW 18.4 mph 21.9 mph N/A   Clear
12:15 PM 51.8 °F - 30.2 °F 44% 29.58 in 10.0 mi NNW 15.0 mph 23.0 mph N/A   Clear
12:35 PM 51.8 °F - 32.0 °F 47% 29.58 in 10.0 mi NNW 12.7 mph - N/A   Scattered Clouds
12:55 PM 51.8 °F - 30.2 °F 44% 29.58 in 10.0 mi NNW 18.4 mph 25.3 mph N/A   Scattered Clouds
1:15 PM 51.8 °F - 30.2 °F 44% 29.59 in 10.0 mi NNW 20.7 mph 26.5 mph N/A   Clear
1:35 PM 50.0 °F - 30.2 °F 47% 29.59 in 10.0 mi NW 13.8 mph 21.9 mph N/A   Scattered Clouds
1:55 PM 50.0 °F - 28.4 °F 43% 29.58 in 10.0 mi NW 20.7 mph - N/A   Mostly Cloudy
2:15 PM 51.8 °F - 30.2 °F 44% 29.59 in 10.0 mi NW 16.1 mph - N/A   Scattered Clouds
2:35 PM 51.8 °F - 28.4 °F 41% 29.59 in 10.0 mi NNW 20.7 mph - N/A   Mostly Cloudy
2:55 PM 51.8 °F - 28.4 °F 41% 29.61 in 10.0 mi NW 18.4 mph 24.2 mph N/A   Overcast
3:15 PM 50.0 °F - 28.4 °F 43% 29.63 in 10.0 mi NW 18.4 mph 23.0 mph N/A   Overcast
3:35 PM 50.0 °F - 28.4 °F 43% 29.65 in 10.0 mi NW 17.3 mph - N/A   Overcast
3:55 PM 50.0 °F - 28.4 °F 43% 29.66 in 10.0 mi NNW 18.4 mph 23.0 mph N/A   Overcast
4:15 PM 50.0 °F - 26.6 °F 40% 29.66 in 10.0 mi NNW 25.3 mph 29.9 mph N/A   Overcast
4:35 PM 50.0 °F - 23.0 °F 35% 29.68 in 10.0 mi NW 20.7 mph 33.4 mph N/A   Scattered Clouds
4:55 PM 48.2 °F - 23.0 °F 37% 29.68 in 10.0 mi NW 20.7 mph 27.6 mph N/A   Mostly Cloudy
5:15 PM 46.4 °F 40.4 °F 23.0 °F 40% 29.70 in 10.0 mi NW 13.8 mph - N/A   Overcast
5:35 PM 46.4 °F 40.4 °F 23.0 °F 40% 29.72 in 10.0 mi WNW 13.8 mph - N/A   Overcast
5:55 PM 46.4 °F 40.7 °F 21.2 °F 37% 29.73 in 10.0 mi WNW 12.7 mph 20.7 mph N/A   Overcast
6:15 PM 44.6 °F 38.4 °F 19.4 °F 37% 29.75 in 10.0 mi WNW 12.7 mph 24.2 mph N/A   Overcast
6:35 PM 44.6 °F 37.2 °F 17.6 °F 34% 29.76 in 10.0 mi WNW 17.3 mph - N/A   Mostly Cloudy
6:55 PM 44.6 °F 37.8 °F 17.6 °F 34% 29.76 in 10.0 mi WNW 15.0 mph - N/A   Scattered Clouds
7:15 PM 42.8 °F 35.1 °F 17.6 °F 36% 29.77 in 10.0 mi WNW 16.1 mph 21.9 mph N/A   Clear
7:35 PM 41.0 °F 32.5 °F 19.4 °F 42% 29.78 in 10.0 mi WNW 17.3 mph - N/A   Clear
7:55 PM 41.0 °F 31.6 °F 19.4 °F 42% 29.78 in 10.0 mi WNW 20.7 mph 25.3 mph N/A   Clear
8:15 PM 41.0 °F 31.6 °F 19.4 °F 42% 29.79 in 10.0 mi WNW 20.7 mph 25.3 mph N/A   Clear
8:35 PM 41.0 °F 31.4 °F 19.4 °F 42% 29.80 in 10.0 mi WNW 21.9 mph 29.9 mph N/A   Clear
8:55 PM 39.2 °F 29.0 °F 19.4 °F 45% 29.81 in 10.0 mi NW 21.9 mph 29.9 mph N/A   Clear
9:15 PM 39.2 °F 28.7 °F 19.4 °F 45% 29.82 in 10.0 mi NW 23.0 mph 31.1 mph N/A   Clear
9:35 PM 37.4 °F 26.6 °F 19.4 °F 48% 29.82 in 10.0 mi NW 21.9 mph 27.6 mph N/A   Clear
9:55 PM 37.4 °F 26.6 °F 21.2 °F 52% 29.82 in 10.0 mi WNW 21.9 mph 27.6 mph N/A   Clear
10:15 PM 37.4 °F 26.9 °F 21.2 °F 52% 29.84 in 10.0 mi WNW 20.7 mph 28.8 mph N/A   Clear
10:35 PM 37.4 °F 26.4 °F 21.2 °F 52% 29.85 in 10.0 mi WNW 23.0 mph 28.8 mph N/A   Clear
10:55 PM 35.6 °F 24.8 °F 21.2 °F 56% 29.86 in 10.0 mi WNW 19.6 mph 25.3 mph N/A   Clear
11:15 PM 33.8 °F 23.5 °F 21.2 °F 60% 29.86 in 10.0 mi WNW 16.1 mph - N/A   Clear
11:35 PM 33.8 °F 22.8 °F 23.0 °F 65% 29.86 in 10.0 mi WNW 18.4 mph 26.5 mph N/A   Clear
11:55 PM 33.8 °F 23.9 °F 23.0 °F 65% 29.87 in 10.0 mi WNW 15.0 mph - N/A   Clear